COSMOS 2545 (760)

Last updated on Sat Apr 13 2024 01:03:06 GMT+0100 (British Summer Time)

1 45358U 20018A 24103.35968873 -.00000076 00000+0 00000+0 0 9997 2 45358 64.7693 340.2440 0007340 254.4582 105.5108 2.13102538 31709
UTC large
Height (km)
Speed (km/s)
/
Latitude / Longitude
Inclination (degrees)
Orbital Period (minutes)
Azimuth
Elevation
Range (km)
Doppler Factor

Next 0 passes for location: London (51.5072 / 0.1276)

Sorry there are no passes over London.